TimeMST,TemperatureF,Dew PointF,Humidity,Sea Level PressureIn,VisibilityMPH,Wind Direction,Wind SpeedMPH,Gust SpeedMPH,PrecipitationIn,Events,Conditions,WindDirDegrees,DateUTC
12:56 AM,1.0,-4.0,79,30.53,-9999.0,Calm,Calm,-,N/A,,Unknown,0,2014-01-22 07:56:00
1:56 AM,-0.9,-5.1,83,30.50,-9999.0,Calm,Calm,-,N/A,,Unknown,0,2014-01-22 08:56:00
2:56 AM,-2.0,-6.0,83,30.48,-9999.0,Calm,Calm,-,N/A,,Unknown,0,2014-01-22 09:56:00
3:56 AM,-2.0,-7.1,79,30.47,-9999.0,Calm,Calm,-,N/A,,Unknown,0,2014-01-22 10:56:00
4:56 AM,-0.0,-4.0,83,30.47,-9999.0,Calm,Calm,-,N/A,,Unknown,0,2014-01-22 11:56:00
5:56 AM,3.0,-0.9,84,30.48,-9999.0,Calm,Calm,-,N/A,,Unknown,0,2014-01-22 12:56:00
6:56 AM,3.9,1.0,88,30.47,-9999.0,Calm,Calm,-,N/A,,Unknown,0,2014-01-22 13:56:00
7:56 AM,3.9,1.0,88,30.47,-9999.0,Calm,Calm,-,N/A,,Unknown,0,2014-01-22 14:56:00
8:56 AM,7.0,3.9,87,30.44,-9999.0,Calm,Calm,-,N/A,,Unknown,0,2014-01-22 15:56:00
9:56 AM,10.0,8.1,92,30.44,-9999.0,Calm,Calm,-,N/A,,Unknown,0,2014-01-22 16:56:00
10:56 AM,12.0,10.0,92,30.43,-9999.0,Calm,Calm,-,N/A,,Unknown,0,2014-01-22 17:56:00
11:56 AM,19.0,15.1,85,30.35,-9999.0,Calm,Calm,-,0.01,,Unknown,0,2014-01-22 18:56:00
12:56 PM,19.0,15.1,85,30.32,-9999.0,Calm,Calm,-,0.02,,Unknown,0,2014-01-22 19:56:00
1:56 PM,19.0,16.0,88,30.32,-9999.0,Calm,Calm,-,N/A,,Unknown,0,2014-01-22 20:56:00
2:56 PM,21.0,18.0,88,30.31,-9999.0,Calm,Calm,-,0.01,,Unknown,0,2014-01-22 21:56:00
3:56 PM,21.9,19.0,89,30.33,-9999.0,Calm,Calm,-,0.01,,Unknown,0,2014-01-22 22:56:00
4:56 PM,21.0,18.0,88,30.33,-9999.0,Calm,Calm,-,N/A,,Unknown,0,2014-01-22 23:56:00
5:56 PM,21.0,18.0,88,30.33,-9999.0,Calm,Calm,-,N/A,,Unknown,0,2014-01-23 00:56:00
6:56 PM,19.0,17.1,92,30.35,-9999.0,Calm,Calm,-,N/A,,Unknown,0,2014-01-23 01:56:00
7:56 PM,16.0,15.1,96,30.39,-9999.0,Calm,Calm,-,N/A,,Unknown,0,2014-01-23 02:56:00
8:56 PM,12.9,10.0,88,30.43,-9999.0,Calm,Calm,-,N/A,,Unknown,0,2014-01-23 03:56:00
9:56 PM,10.0,7.0,87,30.45,-9999.0,NNW,3.5,-,N/A,,Unknown,330,2014-01-23 04:56:00
10:56 PM,7.0,3.9,87,30.48,-9999.0,WNW,3.5,-,N/A,,Unknown,290,2014-01-23 05:56:00
11:56 PM,5.0,1.0,84,30.48,-9999.0,Calm,Calm,-,N/A,,Unknown,0,2014-01-23 06:56:00